FW5423 Weather Reports


Display with metric or nautical units.
time (UTC)temp
F
wind
direction
speed
MPH
gust
MPH
rain 1hr
in
rain 24hr
in
rain mn
in
humidity
%
barometer
mb
20260831185059 58 105 3.0 8.0 0.06 1.91 0.96 98 1008.3
20260831184628 58 359 2.0 8.0 0.05 1.91 0.95 98 1008.4
20260831184101 58 254 2.0 8.0 0.04 1.90 0.94 98 1008.6
20260831183601 58 160 1.0 5.0 0.05 2.04 0.94 98 1008.8
20260831183106 58 133 0.0 2.0 0.04 2.02 0.94 98 1009.3
20260831182558 58 359 0.0 3.0 0.04 2.02 0.93 98 1010.4
20260831182058 58 359 0.0 6.0 0.05 2.02 0.93 98 1010.5
20260831181558 58 177 2.0 8.0 0.06 2.02 0.93 98 1010.7
20260831181057 58 359 2.0 8.0 0.08 2.02 0.92 98 1010.6
20260831180557 58 256 1.0 5.0 0.09 2.00 0.91 98 1010.5
20260831175558 58 145 4.0 9.0 0.13 2.00 0.91 98 1009.1
20260831175058 58 359 2.0 9.0 0.14 2.00 0.91 98 1009.2
20260831174608 58 359 2.0 9.0 0.15 2.00 0.91 98 1008.7
20260831174057 58 206 4.0 8.0 0.17 2.00 0.91 98 1008.8
20260831173556 58 221 0.0 4.0 0.19 2.13 0.91 98 1009.6
20260831173103 58 359 0.0 2.0 0.20 2.12 0.90 98 1010.4
20260831172554 58 359 0.0 2.0 0.24 2.12 0.90 98 1010.4
20260831172055 58 359 0.0 2.0 0.25 2.11 0.89 98 1010.7
20260831171553 58 359 0.0 2.0 0.26 2.09 0.87 98 1010.9
20260831171054 58 212 1.0 4.0 0.28 2.08 0.86 98 1011.5
20260831170555 58 208 0.0 4.0 0.30 2.06 0.83 98 1011.9
20260831165559 58 359 2.0 7.0 0.28 2.02 0.80 98 1012.1
20260831165056 58 187 2.0 7.0 0.30 2.00 0.78 98 1012.0
20260831164556 58 160 1.0 7.0 0.30 1.98 0.76 98 1011.5
20260831164059 58 359 0.0 2.0 0.28 1.98 0.76 98 1011.3
20260831163556 58 192 0.0 5.0 0.27 2.15 0.73 98 1011.8
20260831163057 58 192 1.0 6.0 0.24 2.12 0.70 98 1012.3
20260831162556 58 359 2.0 5.0 0.22 2.09 0.68 98 1012.3
20260831162056 58 359 0.0 3.0 0.20 2.06 0.65 98 1012.0
20260831161555 58 359 0.0 3.0 0.18 2.04 0.63 98 1011.8
20260831161057 58 359 0.0 3.0 0.17 2.02 0.61 98 1011.7
20260831160555 58 359 0.0 4.0 0.13 1.98 0.56 98 1011.8
20260831155556 58 251 0.0 6.0 0.09 1.94 0.53 98 1011.4
20260831155058 58 202 1.0 4.0 0.08 1.93 0.51 98 1011.6
20260831154555 58 359 1.0 3.0 0.04 1.89 0.47 98 1011.9
20260831154054 58 359 1.0 3.0 0.03 1.88 0.46 98 1010.6
20260831153555 58 190 1.0 3.0 0.03 1.88 0.46 98 1011.1
20260831153057 58 189 1.0 2.0 0.04 1.88 0.46 98 1011.0
20260831152554 58 359 0.0 5.0 0.04 1.88 0.46 98 1011.5
20260831152055 58 359 2.0 5.0 0.03 1.87 0.46 98 1011.4
20260831151601 58 149 0.0 4.0 0.02 1.87 0.45 98 1011.4
20260831151055 58 359 1.0 6.0 0.02 1.86 0.44 98 1011.5
20260831150554 58 172 2.0 6.0 0.01 1.85 0.43 98 1011.1
20260831145552 58 124 0.0 4.0 0.01 1.85 0.43 98 1011.1
20260831145052 58 124 1.0 4.0 0.02 1.85 0.43 98 1011.3
20260831144606 58 128 0.0 4.0 0.02 1.85 0.43 98 1011.4
20260831144051 58 177 2.0 4.0 0.02 1.85 0.43 98 1011.4
20260831143550 58 187 1.0 5.0 0.03 1.94 0.43 98 1011.7
20260831143050 58 116 2.0 5.0 0.03 1.93 0.43 98 1011.7
20260831142550 58 359 1.0 8.0 0.04 1.93 0.43 98 1012.4
20260831142046 58 172 4.0 8.0 0.06 1.93 0.43 98 1013.2
20260831141550 58 225 4.0 7.0 0.06 1.93 0.43 98 1013.5
20260831141045 58 230 3.0 6.0 0.08 1.93 0.43 98 1013.5
20260831140546 57 156 0.0 2.0 0.09 1.93 0.43 98 1013.4
20260831135543 57 158 0.0 3.0 0.10 1.93 0.43 98 1013.1
20260831135042 57 156 1.0 5.0 0.09 1.92 0.42 98 1012.9
20260831134542 57 359 3.0 5.0 0.10 1.92 0.42 98 1013.0
20260831134042 57 183 0.0 5.0 0.11 1.91 0.41 98 1013.1
20260831133542 57 206 2.0 11.0 0.17 1.93 0.41 98 1013.6
20260831133039 56 214 5.0 12.0 0.27 1.92 0.40 98 1013.4
20260831132539 56 233 5.0 12.0 0.35 1.91 0.39 98 1012.8
20260831132039 56 177 5.0 13.0 0.35 1.90 0.38 98 1013.3
20260831131541 56 359 6.0 17.0 0.35 1.88 0.36 98 1014.0
20260831131038 56 359 10.0 18.0 0.34 1.87 0.35 98 1014.4
20260831130538 56 359 9.0 18.0 0.35 1.87 0.35 98 1014.2
20260831125539 55 211 11.0 17.0 0.33 1.85 0.33 98 1014.2
20260831125033 55 195 9.0 24.0 0.32 1.84 0.32 98 1014.3
20260831124533 55 182 8.0 24.0 0.32 1.84 0.32 98 1014.1
20260831124031 55 193 12.0 25.0 0.31 1.83 0.31 98 1014.2
20260831123531 55 256 15.0 28.0 0.26 1.79 0.26 98 1014.7
20260831123030 55 183 16.0 28.0 0.22 1.75 0.22 98 1014.1
20260831122529 56 241 16.0 22.0 0.09 1.61 0.09 98 1015.4
20260831122027 56 187 1.0 4.0 0.03 1.56 0.03 98 1012.8
20260831121534 56 147 1.0 4.0 0.02 1.55 0.02 98 1012.5
20260831121026 56 359 0.0 4.0 0.02 1.54 0.02 98 1012.3
20260831120526 56 145 1.0 4.0 0.01 1.54 0.01 98 1011.9
20260831115526 56 359 1.0 6.0 0.00 1.53 0.00 98 1011.8
20260831115029 56 132 0.0 4.0 0.00 1.53 0.00 98 1011.6
20260831114530 56 125 1.0 5.0 0.00 1.53 0.00 98 1012.0
20260831114025 56 141 2.0 5.0 0.00 1.53 0.00 98 1011.8
20260831113525 56 134 0.0 6.0 0.00 1.56 0.00 98 1011.7
20260831113023 56 137 1.0 6.0 0.00 1.56 0.00 98 1011.6
20260831112526 56 359 2.0 5.0 0.00 1.56 0.00 98 1011.4
20260831112023 56 81 0.0 4.0 0.01 1.56 0.00 98 1011.4
20260831111522 57 90 0.0 7.0 0.01 1.56 0.00 98 1011.4
20260831111022 57 45 3.0 9.0 0.01 1.56 0.00 98 1011.4
20260831110521 56 65 2.0 10.0 0.01 1.56 0.00 98 1011.4
20260831105519 56 70 1.0 7.0 0.01 1.56 0.00 98 1011.4
20260831105019 56 80 3.0 7.0 0.01 1.56 0.00 98 1011.3
20260831104516 56 359 0.0 5.0 0.01 1.56 0.00 98 1011.3
20260831104016 56 152 0.0 8.0 0.01 1.56 0.00 98 1011.2
20260831103516 56 74 4.0 8.0 0.01 1.56 1.56 98 1011.2
20260831103016 56 89 2.0 6.0 0.01 1.56 1.56 98 1011.1
20260831102515 56 359 2.0 6.0 0.01 1.56 1.56 98 1011.1
20260831102016 55 192 1.0 4.0 0.01 1.56 1.56 98 1011.1
20260831101517 55 140 0.0 5.0 0.00 1.55 1.55 98 1011.2
20260831101019 55 135 1.0 5.0 0.00 1.55 1.55 98 1011.1
20260831100516 55 180 0.0 6.0 0.00 1.55 1.55 98 1011.2
20260831095514 55 233 2.0 8.0 0.00 1.55 1.55 98 1011.4
20260831095014 55 191 2.0 8.0 0.00 1.55 1.55 98 1011.2
20260831094522 55 87 1.0 11.0 0.00 1.55 1.55 98 1011.2
20260831094015 55 2.0 11.0 0.00 1.55 1.55 98 1011.1
20260831093518 55 50 3.0 7.0 0.00 1.56 1.55 98 1010.9
20260831093014 55 211 1.0 6.0 0.00 1.56 1.55 98 1010.7
20260831092514 55 173 2.0 6.0 0.00 1.56 1.55 98 1011.0
20260831092014 55 170 1.0 8.0 0.00 1.56 1.55 98 1010.9
20260831091513 55 185 1.0 5.0 0.00 1.56 1.55 98 1010.9
20260831091012 55 359 1.0 3.0 0.00 1.56 1.55 98 1010.9
20260831090511 56 359 1.0 6.0 0.00 1.56 1.55 98 1011.0
20260831085526 56 83 1.0 4.0 0.00 1.56 1.55 98 1011.6
20260831085029 56 74 0.0 7.0 0.00 1.56 1.55 98 1011.6
20260831084537 56 55 2.0 8.0 0.00 1.56 1.55 98 1011.7
20260831084025 57 45 5.0 13.0 0.00 1.56 1.55 98 1011.7
20260831083525 58 359 7.0 13.0 0.00 1.64 1.55 98 1011.7
20260831083025 57 34 4.0 7.0 0.00 1.64 1.55 98 1011.5
20260831082525 57 18 4.0 7.0 0.01 1.64 1.55 98 1011.6
20260831082025 56 70 2.0 5.0 0.01 1.64 1.55 98 1011.4
20260831081529 57 359 0.0 10.0 0.01 1.64 1.55 98 1011.2
20260831081025 57 61 6.0 10.0 0.01 1.64 1.55 98 1011.4
20260831080524 56 48 2.0 6.0 0.01 1.64 1.55 98 1011.6
20260831075514 57 43 3.0 8.0 0.01 1.64 1.55 98 1011.5
20260831075022 58 31 2.0 9.0 0.01 1.64 1.55 98 1011.7
20260831074532 58 17 6.0 10.0 0.01 1.64 1.55 98 1011.7
20260831074014 58 31 6.0 10.0 0.01 1.64 1.55 98 1011.5
20260831073514 58 23 8.0 12.0 0.01 1.65 1.55 98 1011.4
20260831073029 57 50 4.0 9.0 0.01 1.65 1.55 98 1011.4
20260831072515 57 359 0.0 5.0 0.00 1.64 1.54 98 1011.5
20260831072015 57 31 0.0 3.0 0.00 1.64 1.54 98 1011.9
20260831071513 57 25 1.0 6.0 0.00 1.64 1.54 98 1012.0
20260831071017 57 41 2.0 8.0 0.00 1.64 1.54 98 1012.1
20260831070513 57 21 6.0 10.0 0.00 1.64 1.54 98 1012.1
20260831065550 57 30 6.0 10.0 0.00 1.64 1.54 98 1012.1
20260831065049 57 43 4.0 8.0 0.00 1.64 1.54 98 1012.2
20260831064600 57 31 5.0 10.0 0.00 1.64 1.54 98 1012.0
20260831064051 57 17 5.0 11.0 0.00 1.64 1.54 98 1012.0
20260831063547 57 359 7.0 11.0 0.01 1.64 1.54 98 1011.9
20260831063051 57 359 7.0 10.0 0.05 1.64 1.54 98 1012.1
20260831062524 57 4 6.0 10.0 0.06 1.64 1.54 98 1012.2
20260831062024 57 359 6.0 10.0 0.06 1.64 1.54 98 1012.5
20260831061532 57 359 3.0 10.0 0.08 1.64 1.54 98 1012.4
20260831061028 57 359 5.0 9.0 0.09 1.64 1.54 98 1012.6
20260831060523 57 359 5.0 9.0 0.10 1.64 1.54 98 1012.7
20260831060125 57 359 3.0 13.0 0.11 1.64 1.54 98 1012.3
20260831055523 57 359 9.0 14.0 0.12 1.64 1.54 98 1012.2
20260831055026 56 359 10.0 17.0 0.13 1.64 1.54 98 1011.9
20260831054525 57 359 12.0 17.0 0.14 1.64 1.54 98 1011.8
20260831054023 58 359 11.0 16.0 0.16 1.64 1.54 98 1011.6
20260831053524 58 359 11.0 17.0 0.30 1.65 1.54 98 1011.7
20260831052526 58 359 13.0 17.0 0.28 1.60 1.49 98 1012.0
20260831052025 58 359 12.0 16.0 0.34 1.60 1.49 98 1011.6
20260831051527 58 354 13.0 16.0 0.44 1.59 1.48 98 1011.9
20260831051025 59 359 10.0 13.0 0.53 1.57 1.46 98 1012.5
20260831050529 59 359 8.0 12.0 0.52 1.56 1.45 98 1012.6
20260831050038 59 25 8.0 11.0 0.53 1.55 1.44 98 1012.5
20260831045525 59 359 8.0 10.0 0.54 1.54 1.43 98 1013.0
20260831045025 59 11 6.0 8.0 0.54 1.54 1.43 98 1013.0
20260831044525 58 64 3.0 5.0 0.54 1.53 1.42 98 1012.8
20260831044024 57 208 2.0 12.0 0.52 1.51 1.40 98 1013.6
20260831043524 56 359 5.0 13.0 0.46 1.45 1.34 98 1014.9
20260831042523 55 84 1.0 15.0 0.35 1.34 1.23 98 1013.5
20260831042025 55 174 5.0 22.0 0.30 1.29 1.18 98 1014.2
20260831041528 55 245 8.0 22.0 0.24 1.24 1.12 98 1014.7
20260831041024 55 23 1.0 7.0 0.09 1.09 0.98 98 1013.8
20260831040523 55 359 2.0 5.0 0.06 1.05 0.94 98 1013.5
20260831040041 55 77 0.0 4.0 0.04 1.03 0.92 98 1013.5
20260831035523 55 39 1.0 6.0 0.02 1.02 0.91 98 1013.4
20260831035022 56 109 1.0 6.0 0.17 1.01 0.90 98 1013.5
20260831034531 56 114 1.0 6.0 0.20 1.00 0.89 98 1013.6
20260831034022 57 359 3.0 6.0 0.19 0.99 0.88 98 1013.8
20260831033522 58 359 2.0 6.0 0.19 1.00 0.88 98 1013.6
20260831032520 58 359 6.0 11.0 0.19 1.00 0.88 98 1013.4
20260831032022 58 359 7.0 11.0 0.19 1.00 0.88 98 1013.5
20260831031522 58 359 7.0 9.0 0.19 1.00 0.88 98 1013.4
20260831031023 58 359 4.0 8.0 0.19 1.00 0.88 98 1013.2
20260831030519 58 359 6.0 9.0 0.19 1.00 0.88 98 1013.3
20260831030037 58 359 6.0 13.0 0.19 1.00 0.88 98 1013.4
20260831025524 59 359 7.0 36.0 0.19 1.00 0.88 98 1013.5
20260831025020 59 359 12.0 36.0 0.17 0.98 0.87 98 1013.9
20260831024518 59 359 19.0 28.0 0.00 0.81 0.69 97 1014.3
20260831024019 59 359 2.0 9.0 0.00 0.81 0.69 97 1012.7
20260831023522 59 359 7.0 9.0 0.00 0.85 0.69 97 1013.1
20260831022524 59 20 5.0 8.0 0.00 0.85 0.69 97 1012.4
20260831022017 59 11 4.0 7.0 0.00 0.85 0.69 97 1012.2
20260831021518 59 29 2.0 8.0 0.00 0.85 0.69 97 1012.3
20260831021017 60 29 3.0 8.0 0.00 0.85 0.69 97 1012.3
20260831020517 60 35 3.0 6.0 0.00 0.85 0.69 97 1012.2
20260831020017 60 17 1.0 9.0 0.00 0.85 0.69 97 1012.4
20260831015516 59 18 6.0 9.0 0.00 0.85 0.69 97 1012.6
20260831015016 59 16 4.0 9.0 0.00 0.85 0.69 97 1012.6
20260831014516 59 15 5.0 13.0 0.00 0.85 0.69 97 1012.9
20260831014016 59 4 7.0 13.0 0.00 0.85 0.69 97 1012.9
20260831013517 59 15 8.0 12.0 0.00 0.87 0.69 98 1012.8
20260831012517 59 43 7.0 13.0 0.00 0.87 0.69 97 1012.7
20260831012017 59 16 6.0 14.0 0.00 0.87 0.69 97 1012.8
20260831011529 59 359 9.0 14.0 0.00 0.87 0.69 97 1012.6
20260831011018 59 359 9.0 16.0 0.00 0.87 0.69 97 1012.6
20260831010516 60 349 10.0 16.0 0.00 0.87 0.69 97 1012.8
20260831010016 60 21 11.0 16.0 0.00 0.87 0.69 97 1012.9
20260831005517 60 359 9.0 13.0 0.00 0.87 0.69 97 1012.9
20260831005016 60 359 8.0 15.0 0.00 0.87 0.69 97 1013.2
20260831004520 60 359 10.0 15.0 0.00 0.87 0.69 97 1013.0
20260831004015 60 4 8.0 13.0 0.00 0.87 0.69 97 1012.8
20260831003519 60 359 9.0 15.0 0.00 0.88 0.69 97 1012.9
20260831002515 60 354 10.0 15.0 0.00 0.88 0.69 97 1012.8
20260831002016 59 359 10.0 17.0 0.00 0.88 0.69 98 1013.0
20260831001515 59 359 11.0 18.0 0.00 0.88 0.69 97 1013.1
20260831001015 59 359 10.0 18.0 0.00 0.88 0.69 97 1013.0
20260831000516 59 18 11.0 16.0 0.00 0.88 0.69 97 1013.1
20260831000015 59 359 11.0 16.0 0.01 0.88 0.69 97 1013.0
20260830235515 59 359 11.0 16.0 0.01 0.88 0.69 97 1013.0
20260830235017 59 359 10.0 16.0 0.01 0.88 0.69 97 1012.9
20260830234514 59 359 10.0 15.0 0.01 0.88 0.69 98 1012.8
20260830234016 59 359 11.0 16.0 0.01 0.88 0.69 98 1012.7
20260830233518 59 359 11.0 16.0 0.01 0.91 0.69 98 1012.8
20260830232515 59 359 10.0 15.0 0.01 0.91 0.69 97 1012.7
20260830232015 59 359 9.0 15.0 0.01 0.91 0.69 98 1012.4
20260830231514 59 359 10.0 15.0 0.01 0.91 0.69 98 1012.1
20260830231012 59 359 10.0 15.0 0.01 0.91 0.69 98 1012.5
20260830230512 59 354 11.0 22.0 0.01 0.91 0.69 98 1012.6
20260830230014 58 359 15.0 22.0 0.01 0.91 0.69 98 1012.8
20260830225513 59 359 12.0 17.0 0.00 0.91 0.69 98 1012.8
20260830225017 59 359 9.0 16.0 0.00 0.91 0.69 98 1012.4
20260830224512 58 4 9.0 17.0 0.00 0.91 0.69 98 1012.4
20260830224012 58 348 12.0 18.0 0.00 0.91 0.69 98 1012.4
20260830223511 58 359 12.0 19.0 0.00 0.95 0.69 98 1012.4
20260830222514 59 359 12.0 17.0 0.00 0.95 0.69 98 1012.4
20260830222014 59 359 12.0 17.0 0.00 0.95 0.69 98 1012.6
20260830221514 59 359 12.0 16.0 0.00 0.95 0.69 98 1012.4
20260830221014 59 348 11.0 16.0 0.00 0.95 0.69 98 1012.2
20260830220514 58 348 13.0 16.0 0.00 0.95 0.69 98 1012.3
20260830220025 58 354 11.0 17.0 0.00 0.95 0.69 98 1012.1
20260830215515 59 359 13.0 17.0 0.00 0.95 0.69 98 1012.4
20260830215013 59 345 9.0 15.0 0.00 0.95 0.69 98 1012.1
20260830214517 58 4 11.0 19.0 0.00 0.95 0.69 98 1012.0
20260830214013 58 359 12.0 19.0 0.00 0.95 0.69 98 1011.8
20260830213513 59 359 12.0 16.0 0.00 0.95 0.69 98 1011.9
20260830212509 59 359 11.0 14.0 0.00 0.95 0.69 98 1012.0
20260830212009 59 354 9.0 11.0 0.00 0.95 0.69 98 1012.0
20260830211509 59 359 6.0 8.0 0.00 0.95 0.69 99 1011.8
20260830211007 59 354 5.0 10.0 0.00 0.95 0.69 99 1011.5
20260830210507 59 359 7.0 10.0 0.00 0.95 0.69 98 1011.7
20260830210017 59 359 7.0 12.0 0.00 0.95 0.69 98 1011.7
20260830205509 58 8 8.0 13.0 0.00 0.95 0.69 99 1011.8
20260830205007 58 359 9.0 15.0 0.00 0.95 0.69 99 1011.6
20260830204504 58 349 12.0 17.0 0.00 0.95 0.69 98 1011.7
20260830204005 58 359 12.0 18.0 0.00 0.95 0.69 99 1011.8
20260830203505 57 345 13.0 18.0 0.00 0.95 0.69 98 1012.0
20260830202508 57 354 11.0 13.0 0.00 0.95 0.69 99 1012.1
20260830202008 57 354 9.0 13.0 0.00 0.95 0.69 99 1012.2
20260830201509 57 8 9.0 12.0 0.01 0.95 0.69 99 1012.2
20260830201008 57 35 7.0 11.0 0.01 0.95 0.69 99 1012.3
20260830200510 57 9 5.0 8.0 0.02 0.95 0.69 98 1012.4
20260830200007 58 51 0.0 3.0 0.03 0.95 0.69 98 1012.4
20260830195507 58 50 0.0 5.0 0.04 0.95 0.69 99 1012.4
20260830195008 58 28 0.0 7.0 0.06 0.95 0.69 99 1012.5
20260830194510 58 45 4.0 7.0 0.08 0.95 0.69 99 1012.7
20260830194011 58 74 4.0 5.0 0.09 0.95 0.69 99 1012.6
20260830193506 58 194 0.0 2.0 0.11 0.95 0.69 98 1012.4
20260830192506 58 190 0.0 2.0 0.14 0.95 0.69 99 1011.8
20260830192006 58 190 0.0 2.0 0.16 0.95 0.69 99 1011.7
20260830191523 58 193 0.0 2.0 0.17 0.94 0.68 98 1011.7
20260830191004 58 189 0.0 5.0 0.18 0.94 0.68 99 1012.0
20260830190504 58 190 2.0 6.0 0.17 0.94 0.67 98 1012.7
20260830190004 58 151 2.0 11.0 0.17 0.93 0.66 98 1012.7
20260830185503 58 359 3.0 11.0 0.17 0.91 0.65 98 1013.4